RYR4069 LKPR-EPKK

Flight info

Callsign RYR4069
Flight time 0h 55m
Altitude 23000
Route VOZ DCT BODAL DCT PADKA
Aircraft B38M/M-SDE1FGHILORVWXY/HB1

Departure

Time 2026-05-07 09:54
Airport Václav Havel Airport Prague (LKPR)

Arrival

Time 2026-05-07 10:49
Airport Kraków John Paul II International Airport (EPKK)
Time Latitude Longitude Altitude Speed Heading
2026-05-07 09:22 50.10841 14.25914 1174 ft 0 kts 304°
2026-05-07 09:46 50.10842 14.25913 1177 ft 1 kts 304°
2026-05-07 09:46 50.10860 14.25871 1175 ft 8 kts 304°
2026-05-07 09:47 50.10862 14.25804 1173 ft 7 kts 224°
2026-05-07 09:47 50.10834 14.25773 1172 ft 8 kts 214°
2026-05-07 09:47 50.10774 14.25709 1173 ft 8 kts 214°
2026-05-07 09:47 50.10724 14.25657 1176 ft 9 kts 214°
2026-05-07 09:48 50.10670 14.25616 1177 ft 9 kts 180°
2026-05-07 09:48 50.10641 14.25636 1178 ft 6 kts 137°
2026-05-07 09:48 50.10618 14.25693 1183 ft 7 kts 119°
2026-05-07 09:48 50.10592 14.25766 1185 ft 9 kts 119°
2026-05-07 09:49 50.10547 14.25873 1185 ft 16 kts 123°
2026-05-07 09:49 50.10470 14.26039 1188 ft 20 kts 127°
2026-05-07 09:49 50.10383 14.26218 1191 ft 21 kts 127°
2026-05-07 09:49 50.10296 14.26398 1195 ft 21 kts 126°
2026-05-07 09:50 50.10213 14.26573 1198 ft 20 kts 127°
2026-05-07 09:50 50.10126 14.26751 1201 ft 21 kts 127°
2026-05-07 09:50 50.10041 14.26929 1205 ft 20 kts 127°
2026-05-07 09:50 50.09957 14.27104 1208 ft 20 kts 126°
2026-05-07 09:51 50.09868 14.27289 1207 ft 23 kts 128°
2026-05-07 09:51 50.09760 14.27459 1208 ft 22 kts 135°
2026-05-07 09:51 50.09650 14.27625 1210 ft 23 kts 136°
2026-05-07 09:51 50.09536 14.27798 1214 ft 22 kts 135°
2026-05-07 09:52 50.09429 14.27964 1219 ft 21 kts 135°
2026-05-07 09:52 50.09327 14.28119 1224 ft 20 kts 134°
2026-05-07 09:52 50.09238 14.28262 1229 ft 15 kts 139°
2026-05-07 09:52 50.09155 14.28279 1235 ft 10 kts 206°
2026-05-07 09:53 50.09112 14.28218 1244 ft 8 kts 233°
2026-05-07 09:53 50.09090 14.28105 1235 ft 15 kts 274°
2026-05-07 09:53 50.09104 14.28051 1237 ft 1 kts 306°
2026-05-07 09:53 50.09120 14.28017 1230 ft 10 kts 306°
2026-05-07 09:54 50.09282 14.27682 1231 ft 77 kts 307°
2026-05-07 09:54 50.09748 14.26716 1218 ft 143 kts 307°
2026-05-07 09:54 50.10440 14.25367 1519 ft 168 kts 303°
2026-05-07 09:54 50.11187 14.23889 2259 ft 178 kts 303°
2026-05-07 09:55 50.11733 14.22214 2984 ft 180 kts 279°
2026-05-07 09:55 50.11486 14.20149 3158 ft 219 kts 238°
2026-05-07 09:55 50.10224 14.18705 3859 ft 239 kts 201°
2026-05-07 09:55 50.08485 14.18677 4539 ft 265 kts 170°
2026-05-07 09:56 50.06696 14.19576 5254 ft 270 kts 168°
2026-05-07 09:56 50.04891 14.20384 6296 ft 271 kts 169°
2026-05-07 09:56 50.03054 14.21203 7158 ft 278 kts 163°
2026-05-07 09:56 50.01485 14.22990 8154 ft 287 kts 131°
2026-05-07 09:57 50.00659 14.25861 8975 ft 301 kts 99°
2026-05-07 09:57 50.00749 14.29048 9993 ft 300 kts 87°
2026-05-07 09:57 50.00785 14.32362 10532 ft 315 kts 94°
2026-05-07 09:57 50.00746 14.35867 11029 ft 331 kts 94°
2026-05-07 09:58 50.00715 14.39494 11693 ft 339 kts 94°
2026-05-07 09:58 50.00693 14.43176 12592 ft 340 kts 94°
2026-05-07 09:58 50.00679 14.46837 13398 ft 345 kts 94°
2026-05-07 09:58 50.00664 14.50590 14197 ft 348 kts 94°
2026-05-07 09:59 50.00650 14.54362 14961 ft 350 kts 94°
2026-05-07 09:59 50.00636 14.58172 15715 ft 353 kts 94°
2026-05-07 09:59 50.00619 14.62021 16462 ft 357 kts 94°
2026-05-07 09:59 50.00600 14.65896 17224 ft 359 kts 93°
2026-05-07 10:00 50.00582 14.69806 17921 ft 363 kts 94°
2026-05-07 10:00 50.00561 14.73705 18544 ft 366 kts 94°
2026-05-07 10:00 50.00542 14.77674 19162 ft 369 kts 94°
2026-05-07 10:00 50.00520 14.81679 19719 ft 373 kts 95°
2026-05-07 10:01 50.00495 14.85725 20267 ft 377 kts 95°
2026-05-07 10:01 50.00469 14.89829 20817 ft 381 kts 95°
2026-05-07 10:01 50.00441 14.93985 21362 ft 385 kts 95°
2026-05-07 10:01 50.00413 14.98147 21992 ft 385 kts 95°
2026-05-07 10:02 50.00387 15.02322 22659 ft 386 kts 96°
2026-05-07 10:02 50.00357 15.06519 22915 ft 388 kts 96°
2026-05-07 10:02 50.00327 15.10652 22935 ft 386 kts 96°
2026-05-07 10:02 50.00292 15.14835 22933 ft 385 kts 96°
2026-05-07 10:03 50.00256 15.18993 22933 ft 385 kts 96°
2026-05-07 10:03 50.00220 15.23169 22903 ft 387 kts 98°
2026-05-07 10:03 50.00179 15.27357 22921 ft 388 kts 98°
2026-05-07 10:03 50.00137 15.31566 22938 ft 388 kts 98°
2026-05-07 10:04 50.00095 15.35723 22939 ft 388 kts 98°
2026-05-07 10:04 50.00051 15.39931 22934 ft 388 kts 98°
2026-05-07 10:04 50.00005 15.44127 22940 ft 388 kts 98°
2026-05-07 10:04 49.99958 15.48324 22933 ft 388 kts 98°
2026-05-07 10:05 49.99909 15.52537 22941 ft 388 kts 98°
2026-05-07 10:05 49.99859 15.56734 22936 ft 388 kts 98°
2026-05-07 10:05 49.99808 15.60884 22941 ft 388 kts 98°
2026-05-07 10:05 49.99754 15.65092 22939 ft 388 kts 98°
2026-05-07 10:06 49.99700 15.69306 22903 ft 389 kts 99°
2026-05-07 10:06 49.99644 15.73464 22933 ft 390 kts 99°
2026-05-07 10:06 49.99585 15.77698 22938 ft 391 kts 99°
2026-05-07 10:06 49.99526 15.81918 22938 ft 390 kts 99°
2026-05-07 10:07 49.99465 15.86144 22944 ft 390 kts 99°
2026-05-07 10:07 49.99402 15.90358 22940 ft 390 kts 99°
2026-05-07 10:07 49.99339 15.94530 22938 ft 390 kts 99°
2026-05-07 10:07 49.99272 15.98755 22935 ft 390 kts 99°
2026-05-07 10:08 49.99205 16.02974 22940 ft 390 kts 99°
2026-05-07 10:08 49.99136 16.07202 22937 ft 390 kts 99°
2026-05-07 10:08 49.99066 16.11422 22934 ft 390 kts 99°
2026-05-07 10:08 49.98995 16.15646 22895 ft 391 kts 99°
2026-05-07 10:09 49.98921 16.19847 22925 ft 394 kts 99°
2026-05-07 10:09 49.98845 16.24111 22934 ft 394 kts 99°
2026-05-07 10:09 49.98768 16.28380 22937 ft 394 kts 99°
2026-05-07 10:09 49.98689 16.32632 22935 ft 394 kts 99°
2026-05-07 10:10 49.98608 16.36907 22937 ft 394 kts 100°
2026-05-07 10:10 49.98526 16.41165 22937 ft 394 kts 100°
2026-05-07 10:10 49.98442 16.45428 22933 ft 394 kts 100°
2026-05-07 10:10 49.98359 16.49639 22922 ft 394 kts 100°
2026-05-07 10:11 49.98272 16.53909 22936 ft 394 kts 100°
2026-05-07 10:11 49.98184 16.58169 22932 ft 394 kts 100°
2026-05-07 10:11 49.98094 16.62426 22895 ft 394 kts 99°
2026-05-07 10:11 49.98002 16.66685 22924 ft 394 kts 99°
2026-05-07 10:12 49.97910 16.70891 22930 ft 394 kts 99°
2026-05-07 10:12 49.97816 16.75142 22915 ft 393 kts 99°
2026-05-07 10:12 49.97721 16.79391 22931 ft 394 kts 99°
2026-05-07 10:12 49.97625 16.83648 22929 ft 394 kts 100°
2026-05-07 10:13 49.97525 16.87913 22926 ft 394 kts 100°
2026-05-07 10:13 49.97424 16.92165 22918 ft 394 kts 100°
2026-05-07 10:13 49.97321 16.96425 22932 ft 393 kts 100°
2026-05-07 10:13 49.97218 17.00677 22931 ft 394 kts 100°
2026-05-07 10:14 49.97113 17.04926 22930 ft 394 kts 100°
2026-05-07 10:14 49.97007 17.09125 22891 ft 393 kts 100°
2026-05-07 10:14 49.96900 17.13345 22921 ft 389 kts 100°
2026-05-07 10:14 49.96792 17.17549 22934 ft 389 kts 101°
2026-05-07 10:15 49.96682 17.21743 22908 ft 389 kts 101°
2026-05-07 10:15 49.96571 17.25939 22937 ft 389 kts 101°
2026-05-07 10:15 49.96457 17.30132 22925 ft 388 kts 101°
2026-05-07 10:15 49.96343 17.34336 22922 ft 388 kts 101°
2026-05-07 10:16 49.96229 17.38473 22916 ft 388 kts 101°
2026-05-07 10:16 49.96111 17.42664 22917 ft 388 kts 101°
2026-05-07 10:16 49.95993 17.46851 22915 ft 388 kts 101°
2026-05-07 10:16 49.95872 17.51050 22922 ft 388 kts 101°
2026-05-07 10:17 49.95750 17.55244 22886 ft 388 kts 100°
2026-05-07 10:17 49.95624 17.59445 22906 ft 390 kts 99°
2026-05-07 10:17 49.95500 17.63659 22919 ft 391 kts 99°
2026-05-07 10:17 49.95373 17.67880 22910 ft 391 kts 99°
2026-05-07 10:18 49.95246 17.72051 22917 ft 391 kts 99°
2026-05-07 10:18 49.95116 17.76267 22915 ft 391 kts 99°
2026-05-07 10:18 49.94984 17.80481 22915 ft 391 kts 100°
2026-05-07 10:18 49.94851 17.84691 22924 ft 391 kts 100°
2026-05-07 10:19 49.94717 17.88913 22910 ft 391 kts 100°
2026-05-07 10:19 49.94580 17.93134 22910 ft 391 kts 100°
2026-05-07 10:19 49.94442 17.97355 22913 ft 391 kts 100°
2026-05-07 10:19 49.94301 18.01588 22911 ft 391 kts 100°
2026-05-07 10:20 49.94160 18.05814 22908 ft 391 kts 100°
2026-05-07 10:20 49.94018 18.10039 22906 ft 391 kts 100°
2026-05-07 10:20 49.93873 18.14259 22912 ft 391 kts 100°
2026-05-07 10:20 49.93729 18.18429 22899 ft 389 kts 100°
2026-05-07 10:21 49.93585 18.22595 22532 ft 385 kts 100°
2026-05-07 10:21 49.93438 18.26744 22098 ft 383 kts 100°
2026-05-07 10:21 49.93494 18.30888 21725 ft 386 kts 90°
2026-05-07 10:21 49.93776 18.34990 21513 ft 379 kts 90°
2026-05-07 10:22 49.94043 18.39123 21274 ft 389 kts 90°
2026-05-07 10:22 49.94305 18.43340 21025 ft 395 kts 90°
2026-05-07 10:22 49.94566 18.47614 20761 ft 398 kts 90°
2026-05-07 10:22 49.94822 18.51851 20308 ft 399 kts 89°
2026-05-07 10:23 49.95081 18.56160 19678 ft 403 kts 89°
2026-05-07 10:23 49.95341 18.60509 19019 ft 407 kts 89°
2026-05-07 10:23 49.95603 18.64917 18375 ft 411 kts 89°
2026-05-07 10:23 49.95863 18.69315 17865 ft 409 kts 88°
2026-05-07 10:24 49.96120 18.73696 17370 ft 405 kts 88°
2026-05-07 10:24 49.96374 18.78051 16915 ft 402 kts 88°
2026-05-07 10:24 49.96622 18.82348 16467 ft 398 kts 88°
2026-05-07 10:24 49.96867 18.86619 16019 ft 395 kts 88°
2026-05-07 10:25 49.97108 18.90840 15572 ft 391 kts 88°
2026-05-07 10:25 49.97346 18.95033 15131 ft 388 kts 88°
2026-05-07 10:25 49.97580 18.99198 14685 ft 386 kts 88°
2026-05-07 10:25 49.97812 19.03336 14240 ft 383 kts 88°
2026-05-07 10:26 49.98037 19.07385 13806 ft 380 kts 88°
2026-05-07 10:26 49.98262 19.11463 13348 ft 377 kts 88°
2026-05-07 10:26 49.98484 19.15512 12890 ft 374 kts 88°
2026-05-07 10:26 49.98703 19.19522 12448 ft 371 kts 88°
2026-05-07 10:27 49.98919 19.23502 12007 ft 368 kts 88°
2026-05-07 10:27 49.99132 19.27450 11597 ft 365 kts 88°
2026-05-07 10:27 49.99342 19.31372 11185 ft 362 kts 88°
2026-05-07 10:27 49.99546 19.35205 10871 ft 356 kts 88°
2026-05-07 10:28 49.99746 19.38989 10714 ft 345 kts 88°
2026-05-07 10:28 49.99939 19.42663 10561 ft 335 kts 88°
2026-05-07 10:28 50.00126 19.46228 10405 ft 326 kts 88°
2026-05-07 10:28 50.00307 19.49712 10243 ft 318 kts 88°
2026-05-07 10:29 50.00480 19.53082 10087 ft 310 kts 88°
2026-05-07 10:29 50.00650 19.56386 9928 ft 302 kts 88°
2026-05-07 10:29 50.00814 19.59629 9643 ft 300 kts 88°
2026-05-07 10:30 50.01138 19.66059 8933 ft 299 kts 88°
2026-05-07 10:30 50.01300 19.69273 8605 ft 297 kts 88°
2026-05-07 10:30 50.01459 19.72476 8287 ft 296 kts 88°
2026-05-07 10:30 50.01618 19.75662 7967 ft 295 kts 88°
2026-05-07 10:31 50.01775 19.78845 7648 ft 295 kts 88°
2026-05-07 10:31 50.01931 19.82022 7328 ft 294 kts 88°
2026-05-07 10:31 50.02084 19.85191 7014 ft 294 kts 88°
2026-05-07 10:31 50.02239 19.88367 6692 ft 293 kts 88°
2026-05-07 10:32 50.02389 19.91489 6384 ft 293 kts 88°
2026-05-07 10:32 50.02542 19.94633 6089 ft 290 kts 88°
2026-05-07 10:32 50.02691 19.97754 5793 ft 288 kts 88°
2026-05-07 10:32 50.02839 20.00835 5601 ft 282 kts 88°
2026-05-07 10:33 50.02934 20.02826 5515 ft 276 kts 88°
2026-05-07 10:33 50.03096 20.05761 5371 ft 269 kts 82°
2026-05-07 10:33 50.03803 20.08400 5111 ft 264 kts 50°
2026-05-07 10:33 50.05215 20.10056 4954 ft 250 kts 18°
2026-05-07 10:34 50.06858 20.10462 4844 ft 231 kts 351°
2026-05-07 10:34 50.08405 20.10126 4756 ft 218 kts 346°
2026-05-07 10:34 50.09900 20.09674 4631 ft 220 kts 337°
2026-05-07 10:34 50.11089 20.08399 4353 ft 208 kts 300°
2026-05-07 10:35 50.11565 20.06335 4095 ft 202 kts 270°
2026-05-07 10:35 50.11361 20.04175 3884 ft 203 kts 256°
2026-05-07 10:35 50.11046 20.02026 3646 ft 205 kts 256°
2026-05-07 10:35 50.10739 19.99849 3357 ft 205 kts 258°
2026-05-07 10:36 50.10440 19.97698 3109 ft 200 kts 258°
2026-05-07 10:36 50.10155 19.95645 2872 ft 188 kts 258°
2026-05-07 10:36 50.09884 19.93695 2607 ft 180 kts 258°
2026-05-07 10:36 50.09630 19.91865 2390 ft 172 kts 258°
2026-05-07 10:37 50.09379 19.90055 2139 ft 169 kts 258°
2026-05-07 10:37 50.09132 19.88296 1909 ft 160 kts 258°
2026-05-07 10:37 50.08898 19.86592 1706 ft 158 kts 257°
2026-05-07 10:37 50.08682 19.85028 1570 ft 138 kts 256°
2026-05-07 10:38 50.08479 19.83648 1332 ft 128 kts 259°
2026-05-07 10:38 50.08296 19.82324 1146 ft 123 kts 260°
2026-05-07 10:38 50.08107 19.80835 1443 ft 148 kts 259°
2026-05-07 10:38 50.07884 19.79177 2162 ft 165 kts 258°
2026-05-07 10:39 50.07622 19.77311 2869 ft 196 kts 258°
2026-05-07 10:39 50.07324 19.75196 3045 ft 199 kts 258°
2026-05-07 10:39 50.07024 19.73057 3099 ft 207 kts 258°
2026-05-07 10:39 50.06714 19.70818 3158 ft 215 kts 261°
2026-05-07 10:40 50.06911 19.68575 3626 ft 215 kts 297°
2026-05-07 10:40 50.08027 19.67039 3825 ft 224 kts 335°
2026-05-07 10:40 50.09578 19.66501 3963 ft 236 kts 346°
2026-05-07 10:40 50.11261 19.66040 3968 ft 254 kts 346°
2026-05-07 10:41 50.13059 19.65907 3962 ft 267 kts
2026-05-07 10:41 50.14702 19.67298 3966 ft 277 kts 45°
2026-05-07 10:41 50.15619 19.69888 4011 ft 280 kts 74°
2026-05-07 10:41 50.16109 19.72823 4010 ft 285 kts 76°
2026-05-07 10:42 50.16609 19.75822 4005 ft 286 kts 76°
2026-05-07 10:42 50.17092 19.78846 4032 ft 286 kts 76°
2026-05-07 10:42 50.17578 19.81845 4016 ft 285 kts 76°
2026-05-07 10:42 50.17659 19.82338 4022 ft 286 kts 76°
2026-05-07 10:43 50.17667 19.82390 4027 ft 286 kts 76°
2026-05-07 10:43 50.18162 19.85445 4033 ft 286 kts 76°
2026-05-07 10:44 50.18649 19.88455 4027 ft 286 kts 76°
2026-05-07 10:44 50.19127 19.91456 4012 ft 281 kts 76°
2026-05-07 10:44 50.19608 19.94349 4006 ft 270 kts 76°
2026-05-07 10:44 50.19828 19.97149 4011 ft 254 kts 102°
2026-05-07 10:45 50.19074 19.99504 4029 ft 240 kts 141°
2026-05-07 10:45 50.17636 20.00572 3986 ft 226 kts 181°
2026-05-07 10:45 50.16109 20.00288 3970 ft 226 kts 196°
2026-05-07 10:45 50.14567 19.99778 3805 ft 225 kts 196°
2026-05-07 10:46 50.13065 19.99266 3578 ft 218 kts 196°
2026-05-07 10:46 50.11616 19.98675 3284 ft 212 kts 206°
2026-05-07 10:46 50.10414 19.97509 3001 ft 195 kts 231°
2026-05-07 10:46 50.09859 19.95722 2783 ft 180 kts 263°
2026-05-07 10:47 50.09819 19.93839 2585 ft 169 kts 265°
2026-05-07 10:47 50.09649 19.92059 2373 ft 163 kts 259°
2026-05-07 10:47 50.09422 19.90350 2171 ft 159 kts 257°
2026-05-07 10:47 50.09186 19.88678 1954 ft 157 kts 258°
2026-05-07 10:48 50.08960 19.87036 1755 ft 151 kts 259°
2026-05-07 10:48 50.08752 19.85562 1620 ft 131 kts 257°
2026-05-07 10:48 50.08564 19.84196 1406 ft 127 kts 257°
2026-05-07 10:48 50.08370 19.82839 1207 ft 129 kts 260°
2026-05-07 10:49 50.08197 19.81466 1061 ft 130 kts 259°
2026-05-07 10:49 50.08008 19.80135 850 ft 121 kts 258°
2026-05-07 10:49 50.07838 19.78950 804 ft 95 kts 258°
2026-05-07 10:49 50.07747 19.78297 803 ft 38 kts 257°
2026-05-07 10:50 50.07685 19.78097 801 ft 15 kts 190°
2026-05-07 10:50 50.07579 19.78088 802 ft 16 kts 182°
2026-05-07 10:50 50.07482 19.78100 802 ft 10 kts 134°
2026-05-07 10:50 50.07482 19.78217 802 ft 12 kts 76°
2026-05-07 10:51 50.07502 19.78357 802 ft 15 kts 78°
2026-05-07 10:51 50.07526 19.78526 802 ft 17 kts 77°
2026-05-07 10:51 50.07553 19.78719 802 ft 19 kts 77°
2026-05-07 10:51 50.07579 19.78910 802 ft 18 kts 77°
2026-05-07 10:52 50.07606 19.79104 802 ft 18 kts 78°
2026-05-07 10:52 50.07634 19.79307 802 ft 20 kts 77°
2026-05-07 10:52 50.07666 19.79534 802 ft 23 kts 79°
2026-05-07 10:52 50.07694 19.79738 802 ft 20 kts 78°
2026-05-07 10:53 50.07680 19.79877 802 ft 12 kts 163°
2026-05-07 10:53 50.07598 19.79903 802 ft 13 kts 167°
2026-05-07 10:53 50.07515 19.79953 802 ft 12 kts 119°
2026-05-07 10:53 50.07529 19.80026 802 ft 5 kts
2026-05-07 10:54 50.07557 19.80019 802 ft 4 kts 348°
2026-05-07 10:54 50.07565 19.80016 802 ft 0 kts 348°